KE0RUZ Weather Reports


Display with metric or nautical units.
time (UTC)temp
F
wind
direction
speed
MPH
gust
MPH
rain 1hr
in
rain 24hr
in
rain mn
in
humidity
%
barometer
mb
20260901211547 101 143 2.0 9.0 0.00 0.00 0.00 38 1016.7
20260901210056 100 237 2.0 7.0 0.00 0.00 0.00 37 1016.7
20260901204555 99 211 3.0 9.0 0.00 0.00 0.00 38 1017.1
20260901203053 99 197 1.0 10.0 0.00 0.00 0.00 37 1017.1
20260901201549 99 233 3.0 9.0 0.00 0.00 0.00 38 1017.4
20260901200050 99 333 2.0 6.0 0.00 0.00 0.00 40 1017.4
20260901194602 99 271 3.0 7.0 0.00 0.00 0.00 40 1017.9
20260901193102 98 133 2.0 6.0 0.00 0.00 0.00 40 1018.0
20260901191549 98 264 1.0 3.0 0.00 0.00 0.00 41 1018.3
20260901190053 97 0 0.0 10.0 0.00 0.00 0.00 41 1018.5
20260901184559 98 216 3.0 5.0 0.00 0.00 0.00 41 1018.6
20260901183049 98 182 1.0 4.0 0.00 0.00 0.00 42 1018.8
20260901181556 98 254 2.0 8.0 0.00 0.00 0.00 43 1019.0
20260901180054 98 145 1.0 7.0 0.00 0.00 0.00 44 1019.2
20260901174551 97 313 2.0 7.0 0.00 0.00 0.00 45 1019.5
20260901173045 97 238 4.0 8.0 0.00 0.00 0.00 45 1019.6
20260901171555 96 243 3.0 7.0 0.00 0.00 0.00 48 1019.7
20260901164549 94 248 3.0 11.0 0.00 0.00 0.00 50 1020.0
20260901163054 93 262 3.0 10.0 0.00 0.00 0.00 51 1020.1
20260901161556 93 251 5.0 13.0 0.00 0.00 0.00 52 1020.2
20260901160053 92 257 4.0 12.0 0.00 0.00 0.00 53 1020.3
20260901154547 92 249 2.0 6.0 0.00 0.00 0.00 55 1020.1
20260901153057 90 193 3.0 9.0 0.00 0.00 0.00 56 1020.2
20260901151557 90 358 5.0 11.0 0.00 0.00 0.00 57 1020.3
20260901150105 87 259 2.0 6.0 0.00 0.00 0.00 60 1020.2
20260901144559 87 216 4.0 8.0 0.00 0.00 0.00 59 1020.2
20260901143055 87 238 2.0 5.0 0.00 0.00 0.00 60 1020.2
20260901141546 85 218 2.0 10.0 0.00 0.00 0.00 61 1020.3
20260901140047 85 228 4.0 10.0 0.00 0.00 0.00 62 1020.3
20260901134557 83 240 2.0 4.0 0.00 0.00 0.00 66 1020.4
20260901133105 81 254 1.0 4.0 0.00 0.00 0.00 67 1020.5
20260901131550 79 247 0.0 3.0 0.00 0.00 0.00 71 1020.1
20260901130048 77 0 0.0 0.0 0.00 0.00 0.00 74 1020.0
20260901124546 75 0 0.0 1.0 0.00 0.00 0.00 75 1020.1
20260901123055 74 0 0.0 0.0 0.00 0.00 0.00 77 1019.8
20260901121600 73 0 0.0 0.0 0.00 0.00 0.00 79 1019.7
20260901120045 73 0 0.0 0.0 0.00 0.00 0.00 79 1019.4
20260901114545 73 0 0.0 0.0 0.00 0.00 0.00 78 1019.4
20260901113058 73 0 0.0 0.0 0.00 0.00 0.00 77 1019.2
20260901111548 73 0 0.0 0.0 0.00 0.00 0.00 76 1019.2
20260901110100 74 0 0.0 0.0 0.00 0.00 0.00 75 1019.0
20260901104555 75 0 0.0 1.0 0.00 0.00 0.00 73 1018.9
20260901103047 75 0 0.0 1.0 0.00 0.00 0.00 72 1018.8
20260901101557 75 141 0.0 1.0 0.00 0.00 0.00 73 1018.8
20260901100057 75 126 0.0 2.0 0.00 0.00 0.00 72 1018.7
20260901094559 75 131 1.0 2.0 0.00 0.00 0.00 72 1018.6
20260901093052 75 111 1.0 2.0 0.00 0.00 0.00 72 1018.6
20260901091545 75 0 0.0 1.0 0.00 0.00 0.00 72 1018.4
20260901090056 75 145 0.0 1.0 0.00 0.00 0.00 72 1018.4
20260901084602 75 0 1.0 2.0 0.00 0.00 0.00 72 1018.4
20260901083047 74 0 0.0 1.0 0.00 0.00 0.00 74 1018.3
20260901081556 74 127 0.0 1.0 0.00 0.00 0.00 74 1018.4
20260901080052 74 0 0.0 1.0 0.00 0.00 0.00 73 1018.2
20260901074559 74 0 0.0 1.0 0.00 0.00 0.00 72 1018.2
20260901073059 75 0 0.0 1.0 0.00 0.00 0.00 72 1018.2
20260901071556 74 0 0.0 1.0 0.00 0.00 0.00 72 1018.3
20260901070058 74 118 1.0 2.0 0.00 0.00 0.00 74 1018.3
20260901064555 72 0 0.0 0.0 0.00 0.00 0.00 77 1018.3
20260901063105 72 0 0.0 0.0 0.00 0.00 0.00 76 1018.5
20260901061556 73 0 0.0 0.0 0.00 0.00 0.00 76 1018.4
20260901060055 74 0 0.0 0.0 0.00 0.00 0.00 74 1018.5
20260901054553 75 0 0.0 0.0 0.00 0.00 0.00 72 1018.4
20260901053053 76 0 0.0 0.0 0.00 0.00 0.00 70 1018.4
20260901051613 77 0 0.0 1.0 0.00 0.00 0.00 67 1018.4
20260901050052 79 0 0.0 1.0 0.00 0.00 0.00 65 1018.3
20260901044555 79 0 0.0 2.0 0.00 0.00 0.00 64 1018.1
20260901043058 79 0 0.0 2.0 0.00 0.00 0.00 63 1018.1
20260901041555 79 129 0.0 1.0 0.00 0.00 0.00 64 1018.1
20260901040054 79 0 0.0 1.0 0.00 0.00 0.00 63 1018.2
20260901034600 78 126 0.0 1.0 0.00 0.00 0.00 64 1018.0
20260901033105 79 0 0.0 2.0 0.00 0.00 0.00 65 1017.9
20260901031555 78 139 1.0 3.0 0.00 0.00 0.00 65 1017.8
20260901030049 77 0 0.0 0.0 0.00 0.00 0.00 68 1017.7
20260901024555 77 0 0.0 1.0 0.00 0.00 0.00 68 1017.5
20260901023053 78 0 0.0 0.0 0.00 0.00 0.00 67 1017.4
20260901021549 79 0 0.0 0.0 0.00 0.00 0.00 65 1017.1
20260901020053 80 0 0.0 0.0 0.00 0.00 0.00 64 1017.0
20260901014601 81 0 0.0 0.0 0.00 0.00 0.00 62 1016.7
20260901013055 82 0 0.0 0.0 0.00 0.00 0.00 60 1016.6
20260901011556 84 0 0.0 0.0 0.00 0.00 0.00 57 1016.5
20260901010056 87 0 0.0 0.0 0.00 0.00 0.00 54 1016.3
20260901004609 89 0 0.0 0.0 0.00 0.00 0.00 47 1016.2
20260901003045 93 0 0.0 0.0 0.00 0.00 0.00 41 1016.1
20260901001605 94 0 0.0 2.0 0.00 0.00 0.00 39 1016.1
20260901000104 96 246 1.0 5.0 0.00 0.00 0.00 37 1016.1
20260831234548 96 245 1.0 5.0 0.00 0.00 0.00 36 1016.0
20260831233047 97 247 1.0 6.0 0.00 0.00 0.00 36 1016.1
20260831231603 98 182 3.0 12.0 0.00 0.00 0.00 35 1016.0
20260831230057 99 211 2.0 6.0 0.00 0.00 0.00 34 1016.0
20260831224604 99 285 3.0 7.0 0.00 0.00 0.00 34 1016.1
20260831223046 100 291 3.0 8.0 0.00 0.00 0.00 33 1016.1
20260831221545 100 240 1.0 6.0 0.00 0.00 0.00 33 1016.1
20260831220054 100 238 4.0 12.0 0.00 0.00 0.00 33 1016.4
20260831214547 100 258 4.0 6.0 0.00 0.00 0.00 33 1016.4
20260831213046 100 215 3.0 10.0 0.00 0.00 0.00 35 1016.4